Regional Weather Roundup
Issued by NWS Columbia, SC

Home | Current Version | Previous Version | Text Only | Print | Product List | Glossary On
Versions: 1 2 3 4 5 6 7 8 9 10 11 12 13 14 15 16 17 18 19 20 21 22 23 24 25 26 27 28 29 30 31 32 33 34 35 36 37 38 39 40 41 42 43 44 45 46 47 48 49 50
000
ASUS42 KCAE 181810
RWRCAE
REGIONAL WEATHER ROUNDUP
NATIONAL WEATHER SERVICE COLUMBIA SC
100 PM EST THU DEC 18 2014

NOTE: "FAIR" INDICATES FEW OR NO CLOUDS BELOW 12,000 FEET WITH NO
SIGNIFICANT WEATHER AND/OR OBSTRUCTIONS TO VISIBILITY.

NOT ALL STATIONS ARE QUALITY CONTROLLED BY THE NATIONAL
WEATHER SERVICE. USE DATA WITH CAUTION...ESPECIALLY
DEWPOINT OBSERVATIONS.

SCZ001>056-GAZ040-063>065-077-181900-
...UPSTATE SOUTH CAROLINA...

CITY           SKY/WX    TMP DP  RH WIND       PRES   REMARKS
ANDERSON       SUNNY     55  26  32 CALM      30.12F
6HR MIN TEMP:  34; 6HR MAX TEMP:  55; 6HR PCP: TRACE;

LIBERTY        MOCLDY    56  26  31 MISG      30.11F
6HR MIN TEMP:  28; 6HR MAX TEMP:  63;

SPARTANBURG    FAIR      55  27  33 S3        30.11F
CLEMSON        PTSUNNY   56  22  26 CALM      30.13F
6HR MIN TEMP:  37; 6HR MAX TEMP:  56;

GREENVILLE     PTSUNNY   56  22  26 SW6       30.12F
6HR MIN TEMP:  42; 6HR MAX TEMP:  56;

GREENWOOD      MOSUNNY   54  32  43 SE5       30.13F
6HR MIN TEMP:  34; 6HR MAX TEMP:  55;

GREER          MOSUNNY   54  26  34 VRB5      30.11F
6HR MIN TEMP:  38; 6HR MAX TEMP:  54;

ROCK HILL      MOSUNNY   52  28  39 CALM      30.12F
6HR MIN TEMP:  33; 6HR MAX TEMP:  52;

CHESTER        FAIR      55  23  28 SE3       30.12F
LAURENS        FAIR      54  36  50 S7        30.12F


...CENTRAL SOUTH CAROLINA...

CITY           SKY/WX    TMP DP  RH WIND       PRES   REMARKS
COLUMBIA APT   PTSUNNY   57  29  34 SE6       30.12F
6HR MIN TEMP:  35; 6HR MAX TEMP:  57;

COLUMBIA OWENS SUNNY     58  30  34 VRB3      30.13F
6HR MIN TEMP:  37; 6HR MAX TEMP:  58;

DARLINGTON     SUNNY     55  28  35 CALM      30.14F
6HR MIN TEMP:  37; 6HR MAX TEMP:  55;

FLORENCE       SUNNY     56  26  31 E6        30.12F
6HR MIN TEMP:  37; 6HR MAX TEMP:  57;

MCENTIRE ANGB  PTSUNNY   57  29  34 VRB5      30.13F
6HR MIN TEMP:  33; 6HR MAX TEMP:  57;

ORANGEBURG     SUNNY     59  37  44 NE5       30.11F
6HR MIN TEMP:  35; 6HR MAX TEMP:  59;

SUMTER SHAW    MOSUNNY   56  27  32 E1        30.11F
6HR MIN TEMP:  35; 6HR MAX TEMP:  57; 6HR PCP: TRACE;

NEWBERRY       FAIR      52  32  46 CALM      30.14F
AIKEN          FAIR      57  37  47 N3        30.13F
BARNWELL       FAIR      61  43  51 CALM      30.11F
CAMDEN         FAIR      54  27  35 CALM      30.13F
LANCASTER      FAIR      54  25  32 SE3       30.12F
WINNSBORO      FAIR      55  32  41 E5        30.10F


...EASTERN AND COASTAL SOUTH CAROLINA...

CITY           SKY/WX    TMP DP  RH WIND       PRES   REMARKS
MYRTLE BEACH   SUNNY     57  32  38 SE10      30.13F
N MYRTLE BCH   SUNNY     57  30  35 VRB3      30.12F
6HR MIN TEMP:  37; 6HR MAX TEMP:  57;

CONWAY         FAIR      55  32  41 CALM      30.12F
MARION         FAIR      55  28  35 CALM      30.12F
HARTSVILLE     FAIR      55  19  24 E5        30.13F
FLORENCE       SUNNY     56  26  31 E6        30.12F
6HR MIN TEMP:  37; 6HR MAX TEMP:  57;

DARLINGTON     SUNNY     55  28  35 CALM      30.14F
6HR MIN TEMP:  37; 6HR MAX TEMP:  55;

CHARLESTON APT MOSUNNY   61  41  47 VRB3      30.10F
6HR MIN TEMP:  40; 6HR MAX TEMP:  62;

MOUNT PLEASANT LGT RAIN  61  45  55 SE5       30.11F
WALTERBORO     CLEAR     61  37  41 S3        30.11F
BEAUFORT       MOSUNNY   60  43  53 E7        30.10F
6HR MIN TEMP:  41; 6HR MAX TEMP:  60;



...EASTERN GEORGIA...

CITY           SKY/WX    TMP DP  RH WIND       PRES   REMARKS
AUGUSTA BUSH F MOSUNNY   58  39  49 VRB3      30.12F
6HR MIN TEMP:  32; 6HR MAX TEMP:  58;

AUGUSTA DANIEL MOSUNNY   58  40  51 E3        30.12F
6HR MIN TEMP:  38; 6HR MAX TEMP:  58;

THOMSON        MOSUNNY   58  41  53 CALM      30.16F
6HR MIN TEMP:  33; 6HR MAX TEMP:  58;

WASHINGTON     FAIR      55  41  58 CALM      30.12F
CLAXTON        FAIR      59  41  51 W5        30.12F
SYLVANIA       CLEAR     59  44  57 CALM      30.12F
6HR MIN TEMP:  35; 6HR MAX TEMP:  59;

STATESBORO     SUNNY     57  42  57 E3        30.11F
6HR MIN TEMP:  36; 6HR MAX TEMP:  57;

SAVANNAH       MOSUNNY   60  38  43 NW3       30.11F
6HR MIN TEMP:  42; 6HR MAX TEMP:  88;



...SOUTHERN NORTH CAROLINA...

CITY           SKY/WX    TMP DP  RH WIND       PRES   REMARKS
CHARLOTTE      PTSUNNY   51  23  33 CALM      30.13F
6HR MIN TEMP:  40; 6HR MAX TEMP:  52;

MONROE         SUNNY     52  25  35 CALM      30.11F
6HR MIN TEMP:  36; 6HR MAX TEMP:  52;

WADESBORO      PTCLDY    52  28  40 NE3       30.13F
6HR MIN TEMP:  30; 6HR MAX TEMP:  52;

ROCKINGHAM     PTCLDY    51  28  40 N3        30.13F
6HR MIN TEMP:  34; 6HR MAX TEMP:  51;

RUTHERFORDTON  MOSUNNY   51  23  33 S6        30.11F
6HR MIN TEMP:  35; 6HR MAX TEMP:  51;

ASHEVILLE      PTSUNNY   49  20  31 CALM      30.09F
6HR MIN TEMP:  35; 6HR MAX TEMP:  51; 6HR PCP: TRACE;


$$



USA.gov is the U.S. government's official web portal to all federal, state and local government web resources and services.